Location: Deurze
(52.9838°N, 6.6090°E)
Time: 19:04:12
(UTC+00:00)

CENTAUR R/B - Pass Details

Date: 11 March 2026
Orbit: 625 x 1555 km, 63.4° (Epoch: 20 April)

Event Time Altitude Azimuth Distance (km) Brightness Sun altitude
Rises 22:32:38 0° 300° (WNW) 3,820 6.2 -38.3°
Reaches altitude 10° 22:35:13 10° 307° (NW) 2,996 5.6 -38.5°
Maximum altitude 22:42:14 45° 20° (NNE) 1,709 3.8 -38.8°
Enters shadow 22:43:38 42° 45° (NE) 1,821 3.9 -38.9°
